sat.trackr.live / text

‹ back to catalog

STARLINK-1471

NORAD 45735 · 2020-038F

PAYLOAD ACTIVE UNKNOWN

§ Identity

Operator
Country
US
Launch date
2020-06-13
Launch site
AFETR
Launch vehicle
Mass (kg)
RCS (m²)

Purposes: comms

External: N2YO · Heavens-Above · Gunter

§ Orbital elements

Epoch: 2026-09-20T01:06:05.080032Z

Period
92.21 min
Inclination
53.0404°
Eccentricity
0.0002949
Mean motion
15.61714394 rev/d
Perigee alt
380.7 km
Apogee alt
384.7 km
Semi-major
6,760.8 km
B*
3.0244e-4
RAAN
282.7104°
Arg perigee
43.7313°
Mean anomaly
316.3933°
Rev number
34,776

§ Raw data

STARLINK-14711 45735U 20038F   26263.04589213  .00026155  00000+0  30244-3 0  99922 45735  53.0404 282.7104 0002949  43.7313 316.3933 15.61714394347767

JSON: /api/v1/satellites/45735 · /tle

For live sub-satellite position, see the globe view (requires WebGL).

§ Visibility from observer

Set your observer location to see the next 7 days of passes ≥ 10°. The values pass through the URL so the page stays shareable.

No JS? Fill the form by hand. The geolocation button needs JavaScript.